Land O' Lakes, WI

8:58 AM CDT on July 27, 2017 (GMT -0500)
Kings Land O'Lakes

Weather History for KLNL - August, 2014

Change the Weather History Date:

Wednesday, August 13, 2014

  Actual Average (KEGV) Record (KEGV)
Temperature  
Mean Temperature 54 °F -  
Max Temperature 69 °F 74 °F 84 °F (1993)
Min Temperature 40 °F 51 °F 35 °F (2004)
Degree Days  
Heating Degree Days 10    
Growing Degree Days 4 (Base 50)    
Moisture  
Dew Point 49 °F    
Average Humidity 73    
Maximum Humidity 100    
Minimum Humidity 39    
Precipitation  
Precipitation 0.00 in - - ()
Sea Level Pressure  
Sea Level Pressure 30.05 in    
Wind  
Wind Speed 4 mph (North)    
Max Wind Speed 15 mph    
Max Gust Speed 22 mph    
Visibility 10 miles    
Events      
Averages and records for this station are not official NWS values.
T = Trace of Precipitation, MM = Missing Value Source: NWS Daily Summary

Daily Weather History Graph

Daily Weather History Graph

Search for Another Location

Airport or City:

Trip Planner

Search our weather history database for the weather conditions in past years. The results will help you decide how hot, cold, wet, or windy it might be!

Date:

Astronomy

Aug. 13, 2014 Rise Set
Actual Time 5:53 AM CDT 8:08 PM CDT
Civil Twilight 5:20 AM CDT 8:41 PM CDT
Nautical Twilight 4:39 AM CDT 9:22 PM CDT
Astronomical Twilight 3:53 AM CDT 10:08 PM CDT
Moon 9:37 PM CDT (8/13) 9:36 AM CDT (8/13)
Length of Visible Light 15h 21m
Length of Day
14h 15m
Waning Gibbous, 87% of the Moon is Illuminated
Aug 13
Waning Gibbous
Aug 17
Last Quarter
Aug 25
New
Sep 2
First Quarter
Sep 8
Full

Hourly Weather History & Observations

Time (CDT) Temp. Dew Point Humidity Pressure Visibility Wind Dir Wind Speed Gust Speed Precip Events Conditions
12:15 AM 57.0 °F 54.1 °F 90% 29.96 in 10.0 mi Calm Calm - N/A   Mostly Cloudy
12:35 AM 54.0 °F 52.9 °F 96% 29.96 in 10.0 mi Calm Calm - N/A   Scattered Clouds
12:55 AM 53.6 °F 52.3 °F 95% 29.96 in 10.0 mi Calm Calm - N/A   Mostly Cloudy
1:15 AM 53.2 °F 52.5 °F 97% 29.97 in 10.0 mi Calm Calm - N/A   Mostly Cloudy
1:35 AM 52.0 °F 51.3 °F 97% 29.96 in 10.0 mi Calm Calm - N/A   Scattered Clouds
1:55 AM 51.1 °F 50.4 °F 97% 29.96 in 10.0 mi Calm Calm - N/A   Clear
2:15 AM 50.7 °F 50.0 °F 97% 29.96 in 10.0 mi Calm Calm - N/A   Scattered Clouds
2:35 AM 50.2 °F 49.8 °F 99% 29.96 in 10.0 mi Calm Calm - N/A   Scattered Clouds
2:55 AM 51.3 °F 50.9 °F 99% 29.97 in 10.0 mi Calm Calm - N/A   Scattered Clouds
3:15 AM 50.2 °F 50.0 °F 99% 29.98 in 7.0 mi Calm Calm - N/A   Clear
3:35 AM 49.3 °F 49.1 °F 99% 29.98 in 7.0 mi Calm Calm - N/A   Scattered Clouds
3:55 AM 49.1 °F 48.6 °F 98% 29.98 in 7.0 mi Calm Calm - N/A   Mostly Cloudy
4:15 AM 49.8 °F 49.6 °F 99% 29.99 in 10.0 mi Calm Calm - N/A   Overcast
4:35 AM 50.2 °F 50.0 °F 99% 29.99 in 10.0 mi Calm Calm - N/A   Scattered Clouds
4:55 AM 50.0 °F 49.6 °F 99% 29.99 in 10.0 mi Calm Calm - N/A   Mostly Cloudy
5:15 AM 49.3 °F 48.9 °F 99% 30.00 in 10.0 mi Calm Calm - N/A   Scattered Clouds
5:35 AM 50.5 °F 50.5 °F 100% 30.00 in 10.0 mi North 3.5 mph - N/A   Mostly Cloudy
6:15 AM 54.3 °F 54.0 °F 99% 30.01 in 7.0 mi NW 3.5 mph - N/A   Clear
6:35 AM 55.4 °F 55.4 °F 100% 30.03 in 10.0 mi NW 3.5 mph - N/A   Clear
6:55 AM 57.4 °F 56.7 °F 97% 30.03 in 10.0 mi North 3.5 mph - N/A   Clear
7:55 AM 59.0 °F 55.4 °F 88% 30.05 in 10.0 mi North 5.8 mph - N/A   Overcast
8:15 AM 59.2 °F 55.0 °F 86% 30.06 in 10.0 mi NNE 11.5 mph - N/A   Overcast
8:55 AM 61.2 °F 54.5 °F 79% 30.06 in 10.0 mi North 9.2 mph - N/A   Overcast
9:35 AM 60.8 °F 54.5 °F 80% 30.07 in 10.0 mi North 9.2 mph - N/A   Overcast
9:55 AM 63.0 °F 53.4 °F 71% 30.07 in 10.0 mi NNW 9.2 mph - N/A   Mostly Cloudy
10:15 AM 64.0 °F 53.4 °F 68% 30.08 in 10.0 mi North 6.9 mph - N/A   Mostly Cloudy
10:35 AM 63.9 °F 52.3 °F 66% 30.08 in 10.0 mi North 8.1 mph - N/A   Mostly Cloudy
10:55 AM 65.7 °F 50.4 °F 58% 30.08 in 10.0 mi North 13.8 mph 17.3 mph N/A   Mostly Cloudy
11:15 AM 65.1 °F 50.2 °F 58% 30.08 in 10.0 mi North 11.5 mph 18.4 mph N/A   Scattered Clouds
11:35 AM 67.5 °F 49.3 °F 52% 30.08 in 10.0 mi North 15.0 mph 21.9 mph N/A   Scattered Clouds
11:55 AM 67.1 °F 49.1 °F 52% 30.08 in 10.0 mi NNW 11.5 mph 18.4 mph N/A   Scattered Clouds
12:15 PM 68.0 °F 48.6 °F 50% 30.08 in 10.0 mi NNW 10.4 mph 17.3 mph N/A   Scattered Clouds
12:35 PM 66.4 °F 48.2 °F 52% 30.08 in 10.0 mi NNW 9.2 mph 16.1 mph N/A   Scattered Clouds
12:55 PM 68.5 °F 48.9 °F 49% 30.08 in 10.0 mi NNW 8.1 mph 18.4 mph N/A   Scattered Clouds
1:15 PM 68.7 °F 47.1 °F 46% 30.08 in 10.0 mi North 11.5 mph 19.6 mph N/A   Scattered Clouds
1:35 PM 67.6 °F 46.4 °F 46% 30.08 in 10.0 mi North 12.7 mph 18.4 mph N/A   Scattered Clouds
1:55 PM 67.8 °F 44.4 °F 43% 30.09 in 10.0 mi North 11.5 mph 19.6 mph N/A   Scattered Clouds
2:15 PM 68.5 °F 45.7 °F 44% 30.09 in 10.0 mi NNW 13.8 mph 17.3 mph N/A   Scattered Clouds
2:35 PM 68.7 °F 42.8 °F 39% 30.09 in 10.0 mi North 12.7 mph 20.7 mph N/A   Scattered Clouds
2:55 PM 68.7 °F 43.3 °F 40% 30.10 in 10.0 mi NNW 11.5 mph 19.6 mph N/A   Scattered Clouds
3:15 PM 67.8 °F 44.1 °F 42% 30.10 in 10.0 mi North 12.7 mph - N/A   Mostly Cloudy
3:35 PM 67.6 °F 44.4 °F 43% 30.10 in 10.0 mi NNE 10.4 mph 18.4 mph N/A   Mostly Cloudy
3:55 PM 65.7 °F 44.4 °F 46% 30.10 in 10.0 mi North 9.2 mph 18.4 mph N/A   Scattered Clouds
4:15 PM 67.1 °F 43.9 °F 43% 30.10 in 10.0 mi North 13.8 mph - N/A   Clear
4:35 PM 65.5 °F 44.2 °F 46% 30.10 in 10.0 mi North 11.5 mph 17.3 mph N/A   Clear
5:15 PM 65.3 °F 45.5 °F 49% 30.11 in 10.0 mi North 11.5 mph - N/A   Scattered Clouds
5:35 PM 65.3 °F 45.7 °F 49% 30.11 in 10.0 mi North 11.5 mph - N/A   Scattered Clouds
5:55 PM 64.6 °F 46.6 °F 52% 30.12 in 10.0 mi North 9.2 mph - N/A   Scattered Clouds
6:15 PM 63.7 °F 45.9 °F 52% 30.12 in 10.0 mi North 9.2 mph - N/A   Clear
6:35 PM 62.4 °F 46.2 °F 55% 30.13 in 10.0 mi NNW 9.2 mph - N/A   Clear
11:15 PM 41.4 °F 41.0 °F 99% 30.16 in 10.0 mi Calm Calm - N/A   Clear
11:55 PM 40.1 °F 39.9 °F 99% 30.16 in 10.0 mi Calm Calm - N/A   Clear